H1 CPF 2 NER 2025 10 18 9 291 01 glonass137 H2 1705501 9137 42939 2025 10 18 0 0 0 2025 10 21 23 45 0 900 1 1 0 0 0 1 H9 10 0 60966 0.00000 0 -25114267.617 720043.099 4486139.748 10 0 60966 900.00000 0 -24363603.263 724754.161 7569909.338 10 0 60966 1800.00000 0 -23252798.326 596170.496 10506874.846 10 0 60966 2700.00000 0 -21819035.613 291341.557 13240100.334 10 0 60966 3600.00000 0 -20109469.106 -224477.651 15716605.572 10 0 60966 4500.00000 0 -18179319.553 -976116.341 17888386.855 10 0 60966 5400.00000 0 -16089652.792 -1977198.010 19713341.313 10 0 60966 6300.00000 0 -13904933.135 -3229325.631 21156077.488 10 0 60966 7200.00000 0 -11690453.214 -4721776.980 22188597.174 10 0 60966 8100.00000 0 -9509746.536 -6431723.993 22790835.985 10 0 60966 9000.00000 0 -7422089.517 -8324968.370 22951052.649 10 0 60966 9900.00000 0 -5480196.002 -10357164.278 22666059.690 10 0 60966 10800.00000 0 -3728199.252 -12475478.852 21941290.990 10 0 60966 11700.00000 0 -2200004.531 -14620622.973 20790704.475 10 0 60966 12600.00000 0 -918080.263 -16729169.259 19236521.138 10 0 60966 13500.00000 0 107262.408 -18736061.943 17308804.514 10 0 60966 14400.00000 0 878071.960 -20577214.997 15044887.669 10 0 60966 15300.00000 0 1408432.549 -22192090.599 12488657.765 10 0 60966 16200.00000 0 1723627.627 -23526150.287 9689711.078 10 0 60966 17100.00000 0 1858826.564 -24533076.085 6702394.129 10 0 60966 18000.00000 0 1857349.945 -25176667.938 3584749.139 10 0 60966 18900.00000 0 1768587.236 -25432336.977 397384.215 10 0 60966 19800.00000 0 1645655.529 -25288131.097 -2797709.493 10 0 60966 20700.00000 0 1542899.333 -24745248.656 -5938370.028 10 0 60966 21600.00000 0 1513338.407 -23818018.065 -8963481.802 10 0 60966 22500.00000 0 1606173.015 -22533343.536 -11814173.082 10 0 60966 23400.00000 0 1864453.577 -20929640.069 -14434969.442 10 0 60966 24300.00000 0 2323014.717 -19055302.418 -16774879.860 10 0 60966 25200.00000 0 3006762.404 -16966772.458 -18788393.693 10 0 60966 26100.00000 0 3929387.709 -14726286.432 -20436368.669 10 0 60966 27000.00000 0 5092562.493 -12399396.840 -21686792.539 10 0 60966 27900.00000 0 6485651.785 -10052372.956 -22515403.726 10 0 60966 28800.00000 0 8085955.634 -7749588.824 -22906159.239 10 0 60966 29700.00000 0 9859470.883 -5551007.643 -22851541.311 10 0 60966 30600.00000 0 11762141.384 -3509867.082 -22352697.350 10 0 60966 31500.00000 0 13741544.634 -1670661.349 -21419411.045 10 0 60966 32400.00000 0 15738944.592 -67503.052 -20069905.699 10 0 60966 33300.00000 0 17691625.085 1277068.164 -18330483.973 10 0 60966 34200.00000 0 19535406.475 2352782.053 -16235011.330 10 0 60966 35100.00000 0 21207240.614 3161811.946 -13824253.399 10 0 60966 36000.00000 0 22647775.796 3718421.209 -11145080.223 10 0 60966 36900.00000 0 23803784.655 4048098.624 -8249552.965 10 0 60966 37800.00000 0 24630353.655 4186220.707 -5193910.900 10 0 60966 38700.00000 0 25092742.810 4176298.772 -2037478.451 10 0 60966 39600.00000 0 25167838.043 4067885.876 1158486.342 10 0 60966 40500.00000 0 24845135.681 3914232.936 4331979.437 10 0 60966 41400.00000 0 24127218.196 3769793.714 7421451.398 10 0 60966 42300.00000 0 23029701.539 3687684.500 10366997.633 10 0 60966 43200.00000 0 21580656.526 3717206.079 13111515.337 10 0 60966 44100.00000 0 19819528.554 3901532.712 15601804.997 10 0 60966 45000.00000 0 17795600.756 4275665.726 17789595.530 10 0 60966 45900.00000 0 15566064.466 4864738.088 19632473.795 10 0 60966 46800.00000 0 13193776.974 5682741.599 21094701.182 10 0 60966 47700.00000 0 10744799.277 6731730.712 22147902.130 10 0 60966 48600.00000 0 8285815.397 8001537.146 22771611.933 10 0 60966 49500.00000 0 5881539.537 9470008.342 22953673.679 10 0 60966 50400.00000 0 3592217.780 11103761.087 22690476.864 10 0 60966 51300.00000 0 1471327.060 12859420.321 21987033.038 10 0 60966 52200.00000 0 -436433.958 14685292.981 20856886.583 10 0 60966 53100.00000 0 -2096779.341 16523408.530 19321861.697 10 0 60966 54000.00000 0 -3487028.367 18311842.317 17411649.559 10 0 60966 54900.00000 0 -4596806.824 19987225.852 15163242.579 10 0 60966 55800.00000 0 -5428228.210 21487339.677 12620225.659 10 0 60966 56700.00000 0 -5995547.626 22753680.631 9831937.193 10 0 60966 57600.00000 0 -6324303.199 23733895.826 6852515.338 10 0 60966 58500.00000 0 -6449981.492 24383980.541 3739847.635 10 0 60966 59400.00000 0 -6416263.747 24670147.110 554444.329 10 0 60966 60300.00000 0 -6272927.532 24570284.995 -2641742.474 10 0 60966 61200.00000 0 -6073493.401 24074949.445 -5786530.222 10 0 60966 62100.00000 0 -5872717.227 23187836.254 -8818723.449 10 0 60966 63000.00000 0 -5724035.524 21925721.633 -11679312.816 10 0 60966 63900.00000 0 -5677073.229 20317869.133 -14312631.256 10 0 60966 64800.00000 0 -5775320.664 18404928.102 -16667443.886 10 0 60966 65700.00000 0 -6054079.202 16237369.768 -18697949.797 10 0 60966 66600.00000 0 -6538763.535 13873526.583 -20364675.784 10 0 60966 67500.00000 0 -7243633.153 11377317.118 -21635244.518 10 0 60966 68400.00000 0 -8171007.274 8815751.796 -22485002.355 10 0 60966 69300.00000 0 -9310996.837 6256323.764 -22897494.935 10 0 60966 70200.00000 0 -10641765.274 3764393.643 -22864781.818 10 0 60966 71100.00000 0 -12130307.390 1400676.816 -22387584.657 10 0 60966 72000.00000 0 -13733713.887 -781062.688 -21475266.560 10 0 60966 72900.00000 0 -15400868.675 -2736016.609 -20145643.573 10 0 60966 73800.00000 0 -17074507.982 -4429952.915 -18424632.314 10 0 60966 74700.00000 0 -18693555.086 -5840386.212 -16345740.915 10 0 60966 75600.00000 0 -20195632.984 -6957250.991 -13949413.325 10 0 60966 76500.00000 0 -21519649.833 -7783051.367 -11282239.803 10 0 60966 77400.00000 0 -22608348.891 -8332482.931 -8396049.071 10 0 60966 78300.00000 0 -23410716.174 -8631544.367 -5346899.793 10 0 60966 79200.00000 0 -23884144.990 -8716177.863 -2193991.092 10 0 60966 80100.00000 0 -23996266.669 -8630496.987 1001486.599 10 0 60966 81000.00000 0 -23726370.823 -8424677.932 4177537.917 10 0 60966 81900.00000 0 -23066355.707 -8152603.986 7272563.080 10 0 60966 82800.00000 0 -22021168.903 -7869363.304 10226549.189 10 0 60966 83700.00000 0 -20608719.896 -7628705.944 12982229.330 10 0 60966 84600.00000 0 -18859268.104 -7480567.681 15486187.317 10 0 60966 85500.00000 0 -16814311.687 -7468765.052 17689887.042 10 0 60967 0.00000 0 -14525023.348 -7628958.713 19550606.974 10 0 60967 900.00000 0 -12050296.411 -7986971.018 21032263.306 10 0 60967 1800.00000 0 -9454484.839 -8557528.462 22106104.115 10 0 60967 2700.00000 0 -6804926.112 -9343482.483 22751265.065 10 0 60967 3600.00000 0 -4169351.728 -10335541.811 22955173.813 10 0 60967 4500.00000 0 -1613290.509 -11512528.563 22713796.594 10 0 60967 5400.00000 0 802428.506 -12842148.546 22031721.970 10 0 60967 6300.00000 0 3023971.035 -14282244.901 20922079.756 10 0 60967 7200.00000 0 5006495.976 -15782484.025 19406296.007 10 0 60967 8100.00000 0 6715775.013 -17286404.588 17513687.889 10 0 60967 9000.00000 0 8129366.542 -18733745.000 15280905.222 10 0 60967 9900.00000 0 9237295.416 -20062952.661 12751228.444 10 0 60967 10800.00000 0 10042210.419 -21213770.193 9973735.623 10 0 60967 11700.00000 0 10559013.217 -22129790.107 7002353.888 10 0 60967 12600.00000 0 10813974.701 -22760870.140 3894813.294 10 0 60967 13500.00000 0 10843376.370 -23065306.894 711523.322 10 0 60967 14400.00000 0 10691734.568 -23011675.133 -2485605.913 10 0 60967 15300.00000 0 10409683.401 -22580254.150 -5634374.149 10 0 60967 16200.00000 0 10051606.664 -21763979.638 -8673508.835 10 0 60967 17100.00000 0 9673120.145 -20568879.902 -11543865.685 10 0 60967 18000.00000 0 9328512.054 -19013977.137 -14189587.481 10 0 60967 18900.00000 0 9068250.995 -17130657.014 -16559197.753 10 0 60967 19800.00000 0 8936668.046 -14961532.537 -18606607.351 10 0 60967 20700.00000 0 8969911.915 -12558849.572 -20292013.851 10 0 60967 21600.00000 0 9194264.324 -9982500.722 -21582676.205 10 0 60967 22500.00000 0 9624887.290 -7297730.505 -22453549.684 10 0 60967 23400.00000 0 10265055.489 -4572627.704 -22887769.115 10 0 60967 24300.00000 0 11105906.207 -1875509.273 -22876971.544 10 0 60967 25200.00000 0 12126717.499 727695.518 -22421452.631 10 0 60967 26100.00000 0 13295702.817 3175952.307 -21530154.302 10 0 60967 27000.00000 0 14571288.659 5415416.718 -20220484.396 10 0 60967 27900.00000 0 15903821.528 7401422.817 -18517972.230 10 0 60967 28800.00000 0 17237632.454 9100083.453 -16455767.017 10 0 60967 29700.00000 0 18513372.335 10489437.300 -14073989.120 10 0 60967 30600.00000 0 19670520.040 11560096.441 -11418946.792 10 0 60967 31500.00000 0 20649957.890 12315369.187 -8542233.758 10 0 60967 32400.00000 0 21396506.322 12770854.820 -5499725.243 10 0 60967 33300.00000 0 21861311.260 12953528.994 -2350492.006 10 0 60967 34200.00000 0 22003983.857 12900359.822 844346.342 10 0 60967 35100.00000 0 21794402.712 12656514.251 4022806.368 10 0 60967 36000.00000 0 21214102.812 12273231.389 7123241.146 10 0 60967 36900.00000 0 20257192.852 11805453.240 10085532.506 10 0 60967 37800.00000 0 18930762.256 11309313.259 12852252.237 10 0 60967 38700.00000 0 17254760.614 10839588.856 15369769.998 10 0 60967 39600.00000 0 15261354.143 10447225.276 17589286.866 10 0 60967 40500.00000 0 12993785.475 10177034.984 19467775.081 10 0 60967 41400.00000 0 10504783.534 10065669.260 20968806.490 10 0 60967 42300.00000 0 7854588.766 10139947.127 22063254.324 10 0 60967 43200.00000 0 5108674.724 10415611.850 22729855.380 10 0 60967 44100.00000 0 2335259.353 10896567.416 22955622.242 10 0 60967 45000.00000 0 -397291.999 11574627.492 22736097.775 10 0 60967 45900.00000 0 -3023065.430 12429788.167 22075446.988 10 0 60967 46800.00000 0 -5481092.605 13431014.010 20986384.065 10 0 60967 47700.00000 0 -7717637.671 14537505.654 19489935.366 10 0 60967 48600.00000 0 -9688182.821 15700396.933 17615042.054 10 0 60967 49500.00000 0 -11359030.608 16864811.516 15398008.983 10 0 60967 50400.00000 0 -12708456.660 17972193.554 12881809.462 10 0 60967 51300.00000 0 -13727365.009 18962815.016 10115258.363 10 0 60967 52200.00000 0 -14419418.826 19778354.398 7152068.814 10 0 60967 53100.00000 0 -14800641.367 20364438.015 4049810.375 10 0 60967 54000.00000 0 -14898504.189 20673036.150 868788.776 10 0 60967 54900.00000 0 -14750541.469 20664612.008 -2329130.742 10 0 60967 55800.00000 0 -14402549.459 20309931.538 -5481733.001 10 0 60967 56700.00000 0 -13906447.907 19591456.377 -8527671.023 10 0 60967 57600.00000 0 -13317894.904 18504259.873 -11407668.012 10 0 60967 58500.00000 0 -12693756.998 17056426.255 -14065678.818 10 0 60967 59400.00000 0 -12089542.696 15268915.074 -16449987.339 10 0 60967 60300.00000 0 -11556908.887 13174895.760 -18514217.837 10 0 60967 61200.00000 0 -11141346.419 10818579.543 -20218240.028 10 0 60967 62100.00000 0 -10880143.287 8253597.303 -21528950.203 10 0 60967 63000.00000 0 -10800711.779 5540990.899 -22420913.306 10 0 60967 63900.00000 0 -10919350.342 2746901.700 -22876853.819 10 0 60967 64800.00000 0 -11240492.274 -59947.534 -22887986.438 10 0 60967 65700.00000 0 -11756472.658 -2810872.847 -22454180.672 10 0 60967 66600.00000 0 -12447823.056 -5439842.741 -21583956.754 10 0 60967 67500.00000 0 -13284081.164 -7885977.218 -20294313.462 10 0 60967 68400.00000 0 -14225081.007 -10095829.188 -18610391.571 10 0 60967 69300.00000 0 -15222669.085 -12025354.330 -16564979.807 10 0 60967 70200.00000 0 -16222773.969 -13641488.726 -14197873.059 10 0 60967 71100.00000 0 -17167742.092 -14923269.968 -11555095.428 10 0 60967 72000.00000 0 -17998841.237 -15862456.528 -8688003.304 10 0 60967 72900.00000 0 -18658826.227 -16463621.183 -5652285.973 10 0 60967 73800.00000 0 -19094458.713 -16743716.255 -2506883.225 10 0 60967 74700.00000 0 -19258874.862 -16731130.500 687158.837 10 0 60967 75600.00000 0 -19113701.208 -16464278.711 3867871.471 10 0 60967 76500.00000 0 -18630829.509 -15989784.582 6973563.403 10 0 60967 77400.00000 0 -17793775.803 -15360334.260 9944014.006 10 0 60967 78300.00000 0 -16598566.334 -14632291.630 12721636.548 10 0 60967 79200.00000 0 -15054112.793 -13863176.098 15252589.208 10 0 60967 80100.00000 0 -13182060.620 -13109109.146 17487812.727 10 0 60967 81000.00000 0 -11016116.024 -12422336.960 19383975.186 10 0 60967 81900.00000 0 -8600878.861 -11848932.981 20904306.295 10 0 60967 82800.00000 0 -5990228.946 -11426776.608 22019305.729 10 0 60967 83700.00000 0 -3245331.651 -11183892.576 22707312.465 10 0 60967 84600.00000 0 -432344.246 -11137220.527 22954924.608 10 0 60967 85500.00000 0 2380083.232 -11291866.411 22757261.835 10 0 60968 0.00000 0 5123410.121 -11640867.336 22118065.438 10 0 60968 900.00000 0 7731805.163 -12165480.494 21049633.244 10 0 60968 1800.00000 0 10144634.036 -12835984.267 19572590.994 10 0 60968 2700.00000 0 12308736.942 -13612959.398 17715502.549 10 0 60968 3600.00000 0 14180398.599 -14448996.921 15514326.168 10 0 60968 4500.00000 0 15726930.502 -15290761.988 13011726.060 10 0 60968 5400.00000 0 16927799.451 -16081327.323 10256251.588 10 0 60968 6300.00000 0 17775255.367 -16762678.285 7301399.249 10 0 60968 7200.00000 0 18274432.131 -17278283.818 4204575.194 10 0 60968 8100.00000 0 18442917.350 -17575624.254 1025978.279 10 0 60968 9000.00000 0 18309809.429 -17608568.386 -2172574.390 10 0 60968 9900.00000 0 17914301.987 -17339498.161 -5328855.997 10 0 60968 10800.00000 0 17303855.997 -16741089.835 -8381448.312 10 0 60968 11700.00000 0 16532037.640 -15797674.943 -11270945.079 10 0 60968 12600.00000 0 15656114.140 -14506122.204 -13941116.025 10 0 60968 13500.00000 0 14734510.123 -12876201.877 -16340007.939 10 0 60968 14400.00000 0 13824232.878 -10930416.017 -18420960.719 10 0 60968 15300.00000 0 12978376.068 -8703300.880 -20143518.102 10 0 60968 16200.00000 0 12243807.860 -6240230.014 -21474215.218 10 0 60968 17100.00000 0 11659141.304 -3595767.599 -22387227.790 10 0 60968 18000.00000 0 11253072.561 -831640.474 -22864870.643 10 0 60968 18900.00000 0 11043156.747 1985586.878 -22897936.378 10 0 60968 19800.00000 0 11035072.472 4787037.899 -22485868.202 10 0 60968 20700.00000 0 11222405.402 7504145.315 -21636764.109 10 0 60968 21600.00000 0 11586959.256 10071259.828 -20367212.887 10 0 60968 22500.00000 0 12099580.376 12428138.334 -18701965.504 10 0 60968 23400.00000 0 12721460.513 14522209.014 -16673448.583 10 0 60968 24300.00000 0 13405862.313 16310520.070 -14321129.600 10 0 60968 25200.00000 0 14100194.334 17761292.151 -11690746.238 10 0 60968 26100.00000 0 14748347.717 18855011.011 -8833414.976 10 0 60968 27000.00000 0 15293195.696 19585016.269 -5804636.307 10 0 60968 27900.00000 0 15679150.314 19957563.105 -2663215.977 10 0 60968 28800.00000 0 15854668.323 19991355.817 529876.642 10 0 60968 29700.00000 0 15774600.456 19716574.196 3712690.770 10 0 60968 30600.00000 0 15402284.882 19173434.868 6823494.004 10 0 60968 31500.00000 0 14711296.470 18410349.066 9801966.335 10 0 60968 32400.00000 0 13686777.955 17481755.051 12590365.359 10 0 60968 33300.00000 0 12326296.671 16445716.752 15134640.348 10 0 60968 34200.00000 0 10640190.318 15361389.762 17385473.980 10 0 60968 35100.00000 0 8651386.517 14286461.007 19299232.123 10 0 60968 36000.00000 0 6394702.707 13274669.297 20838803.956 10 0 60968 36900.00000 0 3915654.409 12373510.315 21974316.855 10 0 60968 37800.00000 0 1268820.123 11622221.770 22683712.855 10 0 60968 38700.00000 0 -1484170.682 11050132.654 22953176.059 10 0 60968 39600.00000 0 -4276944.466 10675445.445 22777402.988 10 0 60968 40500.00000 0 -7040891.225 10504502.083 22159710.627 10 0 60968 41400.00000 0 -9707770.283 10531564.562 21111979.747 10 0 60968 42300.00000 0 -12212307.370 10739119.628 19654433.969 10 0 60968 43200.00000 0 -14494676.224 11098695.269 17815257.948 10 0 60968 44100.00000 0 -16502762.323 11572155.317 15630061.020 10 0 60968 45000.00000 0 -18194114.963 12113418.288 13141195.632 10 0 60968 45900.00000 0 -19537506.503 12670528.588 10396942.742 10 0 60968 46800.00000 0 -20514033.661 13187993.045 7450579.188 10 0 60968 47700.00000 0 -21117714.583 13609284.063 4359344.626 10 0 60968 48600.00000 0 -21355556.756 13879403.344 1183327.993 10 0 60968 49500.00000 0 -21247092.733 13947396.991 -2015704.687 10 0 60968 50400.00000 0 -20823403.256 13768714.473 -5175517.802 10 0 60968 51300.00000 0 -20125669.497 13307310.416 -8234624.586 10 0 60968 52200.00000 0 -19203315.937 12537398.840 -11133491.849 10 0 60968 53100.00000 0 -18111823.059 11444784.209 -13815706.516 10 0 60968 54000.00000 0 -16910302.947 10027711.674 -16229080.356 10 0 60968 54900.00000 0 -15658940.972 8297199.286 -18326670.688 10 0 60968 55800.00000 0 -14416412.216 6276837.088 -20067696.719 10 0 60968 56700.00000 0 -13237382.133 4002060.569 -21418333.530 10 0 60968 57600.00000 0 -12170197.022 1518928.147 -22352368.352 10 0 60968 58500.00000 0 -11254861.540 -1117546.722 -22851706.726 10 0 60968 59400.00000 0 -10521388.043 -3845439.662 -22906719.173 10 0 60968 60300.00000 0 -9988586.522 -6598250.916 -22516422.251 10 0 60968 61200.00000 0 -9663345.204 -9307435.404 -21688491.030 10 0 60968 62100.00000 0 -9540431.038 -11905022.498 -20439103.288 10 0 60968 63000.00000 0 -9602817.380 -14326217.080 -18792618.847 10 0 60968 63900.00000 0 -9822524.012 -16511874.307 -16781100.609 10 0 60968 64800.00000 0 -10161933.117 -18410745.879 -14443686.777 10 0 60968 65700.00000 0 -10575524.878 -19981405.211 -11825826.568 10 0 60968 66600.00000 0 -11011958.790 -21193772.232 -8978394.372 10 0 60968 67500.00000 0 -11416412.270 -22030175.378 -5956699.624 10 0 60968 68400.00000 0 -11733077.409 -22485907.610 -2819411.703 10 0 60968 69300.00000 0 -11907710.115 -22569254.456 372579.108 10 0 60968 70200.00000 0 -11890123.737 -22300994.168 3557342.381 10 0 60968 71100.00000 0 -11636521.728 -21713392.099 6673107.014 10 0 60968 72000.00000 0 -11111570.704 -20848732.520 9659456.076 10 0 60968 72900.00000 0 -10290126.271 -19757450.280 12458493.955 10 0 60968 73800.00000 0 -9158538.597 -18495941.263 15015963.448 10 0 60968 74700.00000 0 -7715482.331 -17124143.761 17282291.503 10 0 60968 75600.00000 0 -5972275.324 -15702992.177 19213543.940 10 0 60968 76500.00000 0 -3952671.821 -14291849.443 20772271.350 10 0 60968 77400.00000 0 -1692137.605 -12946025.230 21928230.455 10 0 60968 78300.00000 0 763364.124 -11714483.168 22658967.669 10 0 60968 79200.00000 0 3359027.120 -10637832.326 22950254.065 10 0 60968 80100.00000 0 6033229.624 -9746686.326 22796363.612 10 0 60968 81000.00000 0 8719852.484 -9060458.225 22200189.317 10 0 60968 81900.00000 0 11350793.236 -8586641.240 21173194.681 10 0 60968 82800.00000 0 13858573.136 -8320605.315 19735200.802 10 0 60968 83700.00000 0 16178930.019 -8245918.153 17914012.342 10 0 60968 84600.00000 0 18253290.021 -8335177.427 15744888.584 10 0 60968 85500.00000 0 20031015.731 -8551319.537 13269868.695 10 0 60969 0.00000 0 21471337.118 -8849350.047 10536963.582 10 0 60969 900.00000 0 22544885.202 -9178423.202 7599227.622 10 0 60969 1800.00000 0 23234762.182 -9484182.254 4513731.544 10 0 60969 2700.00000 0 23537105.439 -9711261.881 1340451.359 10 0 60969 3600.00000 0 23461119.395 -9805845.814 -1858901.273 10 0 60969 4500.00000 0 23028574.654 -9718170.577 -5022085.335 10 0 60969 5400.00000 0 22272795.207 -9404868.063 -8087548.918 10 0 60969 6300.00000 0 21237176.784 -8831046.355 -10995635.216 10 0 60969 7200.00000 0 19973299.422 -7972019.336 -13689751.471 10 0 60969 8100.00000 0 18538714.250 -6814610.430 -16117477.278 10 0 60969 9000.00000 0 16994498.560 -5357974.015 -18231589.925 10 0 60969 9900.00000 0 15402682.824 -3613898.637 -19990986.305 10 0 60969 10800.00000 0 13823658.532 -1606578.145 -21361483.296 10 0 60969 11700.00000 0 12313676.164 628140.568 -22316481.136 10 0 60969 12600.00000 0 10922538.522 3044002.425 -22837477.168 10 0 60969 13500.00000 0 9691585.963 5586030.178 -22914420.523 10 0 60969 14400.00000 0 8652057.474 8192581.700 -22545901.379 10 0 60969 15300.00000 0 7823895.438 10797693.152 -21739171.723 10 0 60969 16200.00000 0 7215043.075 13333610.869 -20509997.744 10 0 60969 17100.00000 0 6821262.710 15733407.001 -18882347.122 10 0 60969 18000.00000 0 6626481.142 17933570.462 -16887917.630 10 0 60969 18900.00000 0 6603646.159 19876465.891 -14565516.395 10 0 60969 19800.00000 0 6716056.911 21512558.857 -11960301.982 10 0 60969 20700.00000 0 6919110.931 22802315.234 -9122904.136 10 0 60969 21600.00000 0 7162393.167 23717696.359 -6108438.361 10 0 60969 22500.00000 0 7392018.110 24243188.427 -2975434.531 10 0 60969 23400.00000 0 7553125.484 24376324.074 215299.483 10 0 60969 24300.00000 0 7592423.675 24127675.328 3401857.015 10 0 60969 25200.00000 0 7460673.101 23520319.206 6522431.656 10 0 60969 26100.00000 0 7115004.444 22588799.240 9516512.826 10 0 60969 27000.00000 0 6520973.637 21377627.196 12326054.780 10 0 60969 27900.00000 0 5654266.707 19939388.287 14896596.658 10 0 60969 28800.00000 0 4501982.276 18332529.541 17178312.191 10 0 60969 29700.00000 0 3063437.207 16618923.895 19126969.352 10 0 60969 30600.00000 0 1350460.750 14861311.680 20704781.993 10 0 60969 31500.00000 0 -612836.211 13120725.926 21881137.690 10 0 60969 32400.00000 0 -2790808.527 11454008.406 22633188.361 10 0 60969 33300.00000 0 -5137511.148 9911519.289 22946292.761 10 0 60969 34200.00000 0 -7598370.749 8535135.246 22814302.588 10 0 60969 35100.00000 0 -10112226.829 7356618.797 22239686.668 10 0 60969 36000.00000 0 -12613659.114 6396426.367 21233490.518 10 0 60969 36900.00000 0 -15035506.038 5663004.399 19815131.476 10 0 60969 37800.00000 0 -17311470.861 5152602.715 18012032.466 10 0 60969 38700.00000 0 -19378707.949 4849612.801 15859100.481 10 0 60969 39600.00000 0 -21180282.024 4727416.848 13398058.779 10 0 60969 40500.00000 0 -22667398.045 4749711.872 10676644.746 10 0 60969 41400.00000 0 -23801308.358 4872253.162 7747688.110 10 0 60969 42300.00000 0 -24554817.012 5044943.320 4668086.911 10 0 60969 43200.00000 0 -24913317.635 5214178.317 1497700.931 10 0 60969 44100.00000 0 -24875320.742 5325350.682 -1701815.765 10 0 60969 45000.00000 0 -24452447.775 5325402.999 -4868219.892 10 0 60969 45900.00000 0 -23668891.804 5165322.359 -7939897.420 10 0 60969 46800.00000 0 -22560367.634 4802468.814 -10857070.736 10 0 60969 47700.00000 0 -21172595.623 4202637.783 -13562970.010 10 0 60969 48600.00000 0 -19559383.492 3341767.687 -16004945.018 10 0 60969 49500.00000 0 -17780387.379 2207219.245 -18135495.038 10 0 60969 50400.00000 0 -15898646.861 798571.089 -19913196.282 10 0 60969 51300.00000 0 -13977998.091 -872102.943 -21303508.627 10 0 60969 52200.00000 0 -12080473.992 -2780487.521 -22279446.020 10 0 60969 53100.00000 0 -10263800.682 -4890800.693 -22822097.844 10 0 60969 54000.00000 0 -8579094.829 -7157058.130 -22920991.595 10 0 60969 54900.00000 0 -7068857.803 -9524774.443 -22574290.388 10 0 60969 55800.00000 0 -5765349.748 -11933030.926 -21788822.047 10 0 60969 56700.00000 0 -4689410.432 -14316823.876 -20579939.739 10 0 60969 57600.00000 0 -3849774.849 -16609595.956 -18971217.285 10 0 60969 58500.00000 0 -3242910.672 -18745845.422 -16993985.372 10 0 60969 59400.00000 0 -2853382.742 -20663704.868 -14686717.917 10 0 60969 60300.00000 0 -2654727.673 -22307382.402 -12094280.589 10 0 60969 61200.00000 0 -2610800.282 -23629363.865 -9267056.191 10 0 60969 62100.00000 0 -2677533.799 -24592284.721 -6259963.988 10 0 60969 63000.00000 0 -2805038.530 -25170394.028 -3131392.072 10 0 60969 63900.00000 0 -2939949.490 -25350549.946 57936.333 10 0 60969 64800.00000 0 -3027923.160 -25132705.854 3246140.514 10 0 60969 65700.00000 0 -3016177.429 -24529867.449 6371380.904 10 0 60969 66600.00000 0 -2855967.035 -23567523.328 9373055.398 10 0 60969 67500.00000 0 -2504889.766 -22282573.459 12192970.213 10 0 60969 68400.00000 0 -1928925.833 -20721800.834 14776462.865 10 0 60969 69300.00000 0 -1104124.199 -18939950.476 17073455.829 10 0 60969 70200.00000 0 -17864.456 -16997496.094 19039421.049 10 0 60969 71100.00000 0 1330359.427 -14958187.391 20636237.291 10 0 60969 72000.00000 0 2928667.223 -12886479.879 21832924.407 10 0 60969 72900.00000 0 4753044.988 -10844953.694 22606240.986 10 0 60969 73800.00000 0 6768112.891 -8891828.073 22941134.370 10 0 60969 74700.00000 0 8928377.891 -7078674.161 22831034.593 10 0 60969 75600.00000 0 11179920.752 -5448420.502 22277986.629 10 0 60969 76500.00000 0 13462448.907 -4033733.482 21292618.071 10 0 60969 77400.00000 0 15711631.258 -2855839.588 19893942.271 10 0 60969 78300.00000 0 17861619.112 -1923838.116 18108999.915 10 0 60969 79200.00000 0 19847649.298 -1234532.672 15972344.908 10 0 60969 80100.00000 0 21608621.586 -772788.291 13525383.477 10 0 60969 81000.00000 0 23089543.056 -512399.024 10815578.270 10 0 60969 81900.00000 0 24243737.141 -417429.298 7895532.035 10 0 60969 82800.00000 0 25034724.432 -443972.286 4821968.147 10 0 60969 83700.00000 0 25437695.609 -542250.688 1654627.584 10 0 60969 84600.00000 0 25440514.075 -658970.468 -1544896.059 10 0 60969 85500.00000 0 25044205.164 -739827.145 -4714360.327 99